DELTA 1 DEB, 18232

Orbit data source: Space-Track

DELTA 1 DEB, 18232 is space debris in SSO originally from a launch on Thu, 29 Jul 1976 UTC launched from the Air Force Western Test Range (AFWTR). Debris objects in space refer to the collection of defunct objects orbiting the Earth. Examples of debris include non-operational satellites, rocket bodies, and fragments generated from explosions, collisions, or faulty payload assembly.

Loading next visibility...
Identifier
18232, 1976-077EY
Orbit
SSO
Country
Flag of USUS
Related business
Manufacturer
Unknown
Mission
Spacecraft
Bus & Motor
Unknown
Mass
Unknown
Launch date (UTC)
1976-07-29 (49 years ago)
Launch vehicle
Unknown
Launch site
Air Force Western Test Range (AFWTR)
Object type
Payload
Rocket body
Debris
Shape & HBR
Unknown shape, 0.1 m
Radar Cross Section
Small (<0.1 m²)

Expand to show TLE details & history
Last TLE update: 1 day ago

TLE from 1 day ago
0 DELTA 1 DEB
1 18232U 76077EY  26012.40814400  .00013930  00000-0  85059-2 0  9990
2 18232 102.9130 190.1884 0208215 352.2991  65.5610 13.95974162  6257
Epoch: 2026-01-12T09:47Z
TLE epoch observation values (Epoch: 2026-01-12T09:47:43.641Z)
Latitude
57.73085°
Longitude
-89.82154°
Altitude
857.156 km
Speed
7.46 km/s
True Right ascension
11h 16m 03s
True Declination
57° 34' 39"
Sunlit
Object was in full shadow at epoch
Visualization orbit readout
Latitude
Unknown
Longitude
Unknown
Altitude
Unknown
Speed
Unknown
Apparent Right ascension
Unknown
Apparent Declination
Unknown
Sunlit
N/A
Visualization observer readout
Local Sidereal Time
15:42:32
Azimuth
Unknown
Elevation
Unknown
Doppler factor
Unknown
Orbital elements
Apogee altitude
1,056.853 km
Perigee altitude
753.553 km
Semi-major axis
7,283.34 km
Eccentricity
0.02082
Inclination
102.913°
RAAN
190.1884°
Arg. of periapsis
352.2991°
True anomaly
67.75629°
Mean anomaly
65.561°
Eccentric anomaly
66.65633°
Mean motion
3.49178 °/min
Orbital period
103.1 mins
BSTAR
0.0085059
Loading maneuver chart data...
Computing Atmospheric mass density...
Loading historical data...
Loading historical data...
Loading historical data...
Loading historical data...
Loading historical data...
Loading historical data...
Loading historical data...

Documentation

Showing up to 5 results
|